"Sample Date","Sample Time","Sample Value","Units","Flow Rate","Sample Interval","Number Channels","Micron Size 0","Counts/Channel 0","Micron Size 1","Counts/Channel 1","Micron Size 2","Counts/Channel 2","Micron Size 3","Counts/Channel 3","Micron Size 4","Counts/Channel 4","Micron Size 5","Counts/Channel 5","Micron Size 6","Counts/Channel 6","Micron Size 7","Counts/Channel 7","Micron Size 8","Counts/Channel 8","Micron Size 9","Counts/Channel 9","Micron Size 10","Counts/Channel 10","Micron Size 11","Counts/Channel 11","Micron Size 12","Counts/Channel 12","Micron Size 13","Counts/Channel 13","Micron Size 14","Counts/Channel 14","Micron Size 15","Counts/Channel 15","Micron Size 16","Counts/Channel 16","Micron Size 17","Counts/Channel 17","Micron Size 18","Counts/Channel 18","Micron Size 19","Counts/Channel 19","Micron Size 20","Counts/Channel 20","Micron Size 21","Counts/Channel 21","Micron Size 22","Counts/Channel 22","Micron Size 23","Counts/Channel 23","Micron Size 24","Counts/Channel 24","Micron Size 25","Counts/Channel 25","Micron Size 26","Counts/Channel 26","Micron Size 27","Counts/Channel 27","Micron Size 28","Counts/Channel 28","Micron Size 29","Counts/Channel 29","Micron Size 30","Counts/Channel 30","Micron Size 31","Counts/Channel 31"
"03/09/08","02:00:03",32380.000,"cc",28396.051,6.00,6,0.100,27655.000,0.200,2333.000,0.300,948.000,0.500,1088.000,1.000,356.000,5.000,0
"03/09/08","02:00:09",32446.000,"cc",28326.988,6.00,6,0.100,27707.000,0.200,2388.000,0.300,927.000,0.500,1064.000,1.000,360.000,5.000,0
"03/09/08","02:00:15",32309.000,"cc",28307.377,6.00,6,0.100,27629.000,0.200,2291.000,0.300,921.000,0.500,1071.000,1.000,397.000,5.000,0
"03/09/08","02:00:21",32237.000,"cc",28324.076,6.00,6,0.100,27557.000,0.200,2311.000,0.300,889.000,0.500,1098.000,1.000,382.000,5.000,0
"03/09/08","02:00:27",32189.000,"cc",28339.547,6.00,6,0.100,27602.000,0.200,2315.000,0.300,881.000,0.500,1004.000,1.000,387.000,5.000,0
"03/09/08","02:00:33",32513.000,"cc",28340.834,6.00,6,0.100,27758.000,0.200,2378.000,0.300,929.000,0.500,1095.000,1.000,353.000,5.000,0
"03/09/08","02:00:39",32525.000,"cc",28214.086,6.00,6,0.100,27809.000,0.200,2395.000,0.300,892.000,0.500,1058.000,1.000,371.000,5.000,0
"03/09/08","02:00:45",32670.000,"cc",28306.863,6.00,6,0.100,27751.000,0.200,2378.000,0.300,1020.000,0.500,1132.000,1.000,389.000,5.000,0
"03/09/08","02:00:51",32525.000,"cc",28316.395,6.00,6,0.100,27766.000,0.200,2436.000,0.300,888.000,0.500,1057.000,1.000,378.000,5.000,0
"03/09/08","02:00:57",32344.000,"cc",28341.109,6.00,6,0.100,27547.000,0.200,2413.000,0.300,938.000,0.500,1083.000,1.000,363.000,5.000,0
"03/09/08","02:01:03",32434.000,"cc",28335.084,6.00,6,0.100,27714.000,0.200,2420.000,0.300,868.000,0.500,1083.000,1.000,349.000,5.000,0
"03/09/08","02:01:09",32819.000,"cc",28240.799,6.00,6,0.100,28065.000,0.200,2340.000,0.300,975.000,0.500,1076.000,1.000,363.000,5.000,0
"03/09/08","02:01:15",31979.000,"cc",28377.670,6.00,6,0.100,27347.000,0.200,2238.000,0.300,956.000,0.500,1084.000,1.000,354.000,5.000,0
"03/09/08","02:01:21",31965.000,"cc",28267.281,6.00,6,0.100,27191.000,0.200,2441.000,0.300,896.000,0.500,1066.000,1.000,371.000,5.000,0
"03/09/08","02:01:27",32559.000,"cc",28291.744,6.00,6,0.100,27835.000,0.200,2399.000,0.300,959.000,0.500,1028.000,1.000,338.000,5.000,0
"03/09/08","02:01:33",32170.000,"cc",28295.906,6.00,6,0.100,27523.000,0.200,2363.000,0.300,932.000,0.500,1002.000,1.000,350.000,5.000,0
"03/09/08","02:01:39",32536.000,"cc",28313.275,6.00,6,0.100,27812.000,0.200,2363.000,0.300,916.000,0.500,1074.000,1.000,371.000,5.000,0
"03/09/08","02:01:45",32084.000,"cc",28354.082,6.00,6,0.100,27272.000,0.200,2386.000,0.300,987.000,0.500,1086.000,1.000,353.000,5.000,0
"03/09/08","02:01:51",32733.000,"cc",28302.938,6.00,6,0.100,27738.000,0.200,2489.000,0.300,951.000,0.500,1174.000,1.000,381.000,5.000,0
"03/09/08","02:01:57",32155.000,"cc",28327.207,6.00,6,0.100,27596.000,0.200,2358.000,0.300,877.000,0.500,991.000,1.000,333.000,5.000,0
"03/09/08","02:02:03",32411.000,"cc",28377.430,6.00,6,0.100,27642.000,0.200,2316.000,0.300,981.000,0.500,1102.000,1.000,370.000,5.000,0
"03/09/08","02:02:09",32394.000,"cc",28258.311,6.00,6,0.100,27766.000,0.200,2315.000,0.300,934.000,0.500,1034.000,1.000,345.000,5.000,0
"03/09/08","02:02:15",32520.000,"cc",28404.986,6.00,6,0.100,27741.000,0.200,2372.000,0.300,927.000,0.500,1097.000,1.000,383.000,5.000,0
"03/09/08","02:02:21",32157.000,"cc",28334.078,6.00,6,0.100,27346.000,0.200,2409.000,0.300,927.000,0.500,1094.000,1.000,381.000,5.000,0
"03/09/08","02:02:27",31869.000,"cc",28274.451,6.00,6,0.100,27080.000,0.200,2323.000,0.300,956.000,0.500,1135.000,1.000,375.000,5.000,0
"03/09/08","02:02:33",32382.000,"cc",28276.762,6.00,6,0.100,27699.000,0.200,2291.000,0.300,867.000,0.500,1153.000,1.000,372.000,5.000,0
"03/09/08","02:02:39",32161.000,"cc",28338.467,6.00,6,0.100,27522.000,0.200,2333.000,0.300,937.000,0.500,1006.000,1.000,363.000,5.000,0
"03/09/08","02:02:45",31828.000,"cc",28384.775,6.00,6,0.100,27157.000,0.200,2374.000,0.300,907.000,0.500,1037.000,1.000,353.000,5.000,0
"03/09/08","02:02:51",31984.000,"cc",28262.428,6.00,6,0.100,27349.000,0.200,2337.000,0.300,899.000,0.500,1031.000,1.000,368.000,5.000,0
"03/09/08","02:02:57",32113.000,"cc",28291.357,6.00,6,0.100,27370.000,0.200,2324.000,0.300,962.000,0.500,1088.000,1.000,369.000,5.000,0
"03/09/08","02:03:03",32080.000,"cc",28363.170,6.00,6,0.100,27299.000,0.200,2363.000,0.300,930.000,0.500,1097.000,1.000,391.000,5.000,0
"03/09/08","02:03:09",32027.000,"cc",28292.125,6.00,6,0.100,27342.000,0.200,2375.000,0.300,913.000,0.500,1025.000,1.000,372.000,5.000,0
"03/09/08","02:03:15",32441.000,"cc",28305.467,6.00,6,0.100,27810.000,0.200,2351.000,0.300,921.000,0.500,1000.000,1.000,359.000,5.000,0
"03/09/08","02:03:21",32008.000,"cc",28268.496,6.00,6,0.100,27394.000,0.200,2295.000,0.300,898.000,0.500,1034.000,1.000,387.000,5.000,0
"03/09/08","02:03:27",31858.000,"cc",28262.588,6.00,6,0.100,27213.000,0.200,2332.000,0.300,886.000,0.500,1061.000,1.000,366.000,5.000,0
"03/09/08","02:03:33",31829.000,"cc",28309.916,6.00,6,0.100,27088.000,0.200,2322.000,0.300,929.000,0.500,1105.000,1.000,385.000,5.000,0
"03/09/08","02:03:39",31915.000,"cc",28310.779,6.00,6,0.100,27262.000,0.200,2296.000,0.300,938.000,0.500,1091.000,1.000,328.000,5.000,0
"03/09/08","02:03:45",32079.000,"cc",28459.852,6.00,6,0.100,27308.000,0.200,2339.000,0.300,946.000,0.500,1104.000,1.000,382.000,5.000,0
"03/09/08","02:03:51",32053.000,"cc",28334.678,6.00,6,0.100,27488.000,0.200,2273.000,0.300,839.000,0.500,1089.000,1.000,364.000,5.000,0
"03/09/08","02:03:57",31767.000,"cc",28324.174,6.00,6,0.100,27047.000,0.200,2337.000,0.300,937.000,0.500,1078.000,1.000,368.000,5.000,0
"03/09/08","02:04:03",32178.000,"cc",28235.965,6.00,6,0.100,27444.000,0.200,2379.000,0.300,902.000,0.500,1101.000,1.000,352.000,5.000,0
"03/09/08","02:04:09",31938.000,"cc",28274.707,6.00,6,0.100,27367.000,0.200,2307.000,0.300,891.000,0.500,1027.000,1.000,346.000,5.000,0
"03/09/08","02:04:15",31961.000,"cc",28399.297,6.00,6,0.100,27232.000,0.200,2363.000,0.300,946.000,0.500,1076.000,1.000,344.000,5.000,0
"03/09/08","02:04:21",31632.000,"cc",28304.418,6.00,6,0.100,26949.000,0.200,2338.000,0.300,923.000,0.500,1062.000,1.000,360.000,5.000,0
"03/09/08","02:04:27",31655.000,"cc",28291.348,6.00,6,0.100,27090.000,0.200,2274.000,0.300,870.000,0.500,1065.000,1.000,356.000,5.000,0
"03/09/08","02:04:33",32078.000,"cc",28248.061,6.00,6,0.100,27414.000,0.200,2342.000,0.300,900.000,0.500,1075.000,1.000,347.000,5.000,0
"03/09/08","02:04:39",32061.000,"cc",28403.535,6.00,6,0.100,27353.000,0.200,2322.000,0.300,939.000,0.500,1084.000,1.000,363.000,5.000,0
"03/09/08","02:04:45",31658.000,"cc",28172.266,6.00,6,0.100,27125.000,0.200,2301.000,0.300,878.000,0.500,1019.000,1.000,335.000,5.000,0
"03/09/08","02:04:51",32023.000,"cc",28407.281,6.00,6,0.100,27312.000,0.200,2322.000,0.300,909.000,0.500,1115.000,1.000,365.000,5.000,0
"03/09/08","02:04:57",31947.000,"cc",28288.193,6.00,6,0.100,27264.000,0.200,2304.000,0.300,935.000,0.500,1044.000,1.000,400.000,5.000,0
"03/09/08","02:05:03",31837.000,"cc",28357.109,6.00,6,0.100,27125.000,0.200,2316.000,0.300,879.000,0.500,1138.000,1.000,379.000,5.000,0
"03/09/08","02:05:09",31838.000,"cc",28178.414,6.00,6,0.100,27329.000,0.200,2190.000,0.300,890.000,0.500,1046.000,1.000,383.000,5.000,0
"03/09/08","02:05:15",31884.000,"cc",28326.430,6.00,6,0.100,27202.000,0.200,2320.000,0.300,890.000,0.500,1084.000,1.000,388.000,5.000,0
"03/09/08","02:05:21",31772.000,"cc",28364.315,6.00,6,0.100,27084.000,0.200,2334.000,0.300,880.000,0.500,1088.000,1.000,386.000,5.000,0
"03/09/08","02:05:27",31858.000,"cc",28321.922,6.00,6,0.100,27187.000,0.200,2323.000,0.300,960.000,0.500,1046.000,1.000,342.000,5.000,0
"03/09/08","02:05:33",32051.000,"cc",28338.260,6.00,6,0.100,27421.000,0.200,2247.000,0.300,904.000,0.500,1114.000,1.000,365.000,5.000,0
"03/09/08","02:05:39",31848.000,"cc",28221.275,6.00,6,0.100,27352.000,0.200,2127.000,0.300,887.000,0.500,1135.000,1.000,347.000,5.000,0
"03/09/08","02:05:45",31807.000,"cc",28356.660,6.00,6,0.100,27216.000,0.200,2313.000,0.300,892.000,0.500,1038.000,1.000,348.000,5.000,0
"03/09/08","02:05:51",32029.000,"cc",28386.481,6.00,6,0.100,27332.000,0.200,2277.000,0.300,955.000,0.500,1065.000,1.000,400.000,5.000,0
"03/09/08","02:05:57",31944.000,"cc",28361.859,6.00,6,0.100,27412.000,0.200,2230.000,0.300,838.000,0.500,1097.000,1.000,367.000,5.000,0
"03/09/08","02:06:03",32114.000,"cc",28258.102,6.00,6,0.100,27475.000,0.200,2304.000,0.300,893.000,0.500,1058.000,1.000,384.000,5.000,0
"03/09/08","02:06:09",31757.000,"cc",28387.654,6.00,6,0.100,27166.000,0.200,2237.000,0.300,879.000,0.500,1101.000,1.000,373.000,5.000,1.000
"03/09/08","02:06:15",31958.000,"cc",28257.227,6.00,6,0.100,27358.000,0.200,2299.000,0.300,894.000,0.500,1042.000,1.000,365.000,5.000,0
"03/09/08","02:06:21",31468.000,"cc",28273.875,6.00,6,0.100,26840.000,0.200,2298.000,0.300,916.000,0.500,1050.000,1.000,364.000,5.000,0
"03/09/08","02:06:27",31654.000,"cc",28317.975,6.00,6,0.100,27067.000,0.200,2269.000,0.300,845.000,0.500,1089.000,1.000,384.000,5.000,0
"03/09/08","02:06:33",32023.000,"cc",28260.516,6.00,6,0.100,27473.000,0.200,2258.000,0.300,867.000,0.500,1088.000,1.000,337.000,5.000,0
"03/09/08","02:06:39",32068.000,"cc",28478.393,6.00,6,0.100,27321.000,0.200,2272.000,0.300,945.000,0.500,1153.000,1.000,377.000,5.000,0
"03/09/08","02:06:45",31936.000,"cc",28351.313,6.00,6,0.100,27295.000,0.200,2296.000,0.300,943.000,0.500,1029.000,1.000,373.000,5.000,0
"03/09/08","02:06:51",31959.000,"cc",28330.107,6.00,6,0.100,27220.000,0.200,2294.000,0.300,924.000,0.500,1122.000,1.000,399.000,5.000,0
"03/09/08","02:06:57",32021.000,"cc",28304.672,6.00,6,0.100,27393.000,0.200,2237.000,0.300,941.000,0.500,1078.000,1.000,372.000,5.000,0
"03/09/08","02:07:03",32018.000,"cc",28301.666,6.00,6,0.100,27454.000,0.200,2208.000,0.300,913.000,0.500,1047.000,1.000,396.000,5.000,0
"03/09/08","02:07:09",32124.000,"cc",28374.793,6.00,6,0.100,27453.000,0.200,2231.000,0.300,923.000,0.500,1153.000,1.000,364.000,5.000,0
"03/09/08","02:07:15",31673.000,"cc",28319.043,6.00,6,0.100,26909.000,0.200,2380.000,0.300,861.000,0.500,1132.000,1.000,391.000,5.000,0
"03/09/08","02:07:21",31720.000,"cc",28253.940,6.00,6,0.100,26922.000,0.200,2307.000,0.300,962.000,0.500,1167.000,1.000,362.000,5.000,0
"03/09/08","02:07:27",31839.000,"cc",28321.303,6.00,6,0.100,27187.000,0.200,2194.000,0.300,946.000,0.500,1110.000,1.000,402.000,5.000,0
"03/09/08","02:07:33",31430.000,"cc",28293.990,6.00,6,0.100,26802.000,0.200,2313.000,0.300,902.000,0.500,1057.000,1.000,356.000,5.000,0
"03/09/08","02:07:39",31544.000,"cc",28396.299,6.00,6,0.100,27035.000,0.200,2192.000,0.300,931.000,0.500,1010.000,1.000,376.000,5.000,0
"03/09/08","02:07:45",31814.000,"cc",28235.957,6.00,6,0.100,27159.000,0.200,2288.000,0.300,896.000,0.500,1087.000,1.000,384.000,5.000,0
"03/09/08","02:07:51",31565.000,"cc",28315.678,6.00,6,0.100,27025.000,0.200,2249.000,0.300,905.000,0.500,1051.000,1.000,335.000,5.000,0
"03/09/08","02:07:57",31403.000,"cc",28239.518,6.00,6,0.100,26951.000,0.200,2148.000,0.300,894.000,0.500,1089.000,1.000,321.000,5.000,0
"03/09/08","02:08:03",31573.000,"cc",28340.732,6.00,6,0.100,27048.000,0.200,2205.000,0.300,914.000,0.500,1084.000,1.000,322.000,5.000,0
"03/09/08","02:08:09",31932.000,"cc",28332.447,6.00,6,0.100,27190.000,0.200,2364.000,0.300,937.000,0.500,1086.000,1.000,355.000,5.000,0
"03/09/08","02:08:15",31948.000,"cc",28292.578,6.00,6,0.100,27372.000,0.200,2272.000,0.300,917.000,0.500,1056.000,1.000,331.000,5.000,0
"03/09/08","02:08:21",31388.000,"cc",28400.826,6.00,6,0.100,26852.000,0.200,2196.000,0.300,851.000,0.500,1113.000,1.000,376.000,5.000,0
"03/09/08","02:08:27",31329.000,"cc",28282.496,6.00,6,0.100,26831.000,0.200,2210.000,0.300,887.000,0.500,1036.000,1.000,365.000,5.000,0
"03/09/08","02:08:33",31635.000,"cc",28334.945,6.00,6,0.100,27041.000,0.200,2277.000,0.300,936.000,0.500,1025.000,1.000,356.000,5.000,0
"03/09/08","02:08:39",31885.000,"cc",28239.363,6.00,6,0.100,27171.000,0.200,2313.000,0.300,956.000,0.500,1085.000,1.000,360.000,5.000,0
"03/09/08","02:08:45",31356.000,"cc",28266.412,6.00,6,0.100,26833.000,0.200,2268.000,0.300,863.000,0.500,1020.000,1.000,372.000,5.000,0
"03/09/08","02:08:51",31913.000,"cc",28362.398,6.00,6,0.100,27352.000,0.200,2278.000,0.300,883.000,0.500,1056.000,1.000,344.000,5.000,0
"03/09/08","02:08:57",31504.000,"cc",28372.440,6.00,6,0.100,26798.000,0.200,2254.000,0.300,975.000,0.500,1090.000,1.000,387.000,5.000,0
"03/09/08","02:09:03",31744.000,"cc",28305.410,6.00,6,0.100,27193.000,0.200,2221.000,0.300,938.000,0.500,1040.000,1.000,352.000,5.000,0
"03/09/08","02:09:09",31790.000,"cc",28355.795,6.00,6,0.100,27051.000,0.200,2233.000,0.300,958.000,0.500,1183.000,1.000,365.000,5.000,0
"03/09/08","02:09:15",31621.000,"cc",28277.576,6.00,6,0.100,27184.000,0.200,2209.000,0.300,873.000,0.500,1008.000,1.000,347.000,5.000,0
"03/09/08","02:09:21",31205.000,"cc",28316.938,6.00,6,0.100,26754.000,0.200,2256.000,0.300,880.000,0.500,969.000,1.000,346.000,5.000,0
"03/09/08","02:09:27",31419.000,"cc",28318.063,6.00,6,0.100,26803.000,0.200,2209.000,0.300,955.000,0.500,1083.000,1.000,369.000,5.000,0
"03/09/08","02:09:33",31408.000,"cc",28337.490,6.00,6,0.100,26740.000,0.200,2243.000,0.300,952.000,0.500,1088.000,1.000,385.000,5.000,0
"03/09/08","02:09:39",32073.000,"cc",28348.613,6.00,6,0.100,27282.000,0.200,2318.000,0.300,935.000,0.500,1144.000,1.000,394.000,5.000,0
"03/09/08","02:09:45",31751.000,"cc",28243.666,6.00,6,0.100,27089.000,0.200,2288.000,0.300,906.000,0.500,1108.000,1.000,360.000,5.000,0
"03/09/08","02:09:51",31671.000,"cc",28283.555,6.00,6,0.100,26905.000,0.200,2334.000,0.300,930.000,0.500,1135.000,1.000,367.000,5.000,0
"03/09/08","02:09:57",31683.000,"cc",28323.549,6.00,6,0.100,27070.000,0.200,2220.000,0.300,935.000,0.500,1086.000,1.000,372.000,5.000,0
"03/09/08","02:10:03",31227.000,"cc",28367.945,6.00,6,0.100,26627.000,0.200,2207.000,0.300,914.000,0.500,1142.000,1.000,337.000,5.000,0
"03/09/08","02:10:09",31408.000,"cc",28312.889,6.00,6,0.100,26690.000,0.200,2232.000,0.300,994.000,0.500,1137.000,1.000,355.000,5.000,0
"03/09/08","02:10:15",31551.000,"cc",28266.088,6.00,6,0.100,26946.000,0.200,2176.000,0.300,997.000,0.500,1088.000,1.000,344.000,5.000,0
"03/09/08","02:10:21",31436.000,"cc",28304.535,6.00,6,0.100,26690.000,0.200,2265.000,0.300,1019.000,0.500,1091.000,1.000,371.000,5.000,0
"03/09/08","02:10:27",31477.000,"cc",28353.709,6.00,6,0.100,26794.000,0.200,2306.000,0.300,949.000,0.500,1092.000,1.000,336.000,5.000,0
"03/09/08","02:10:33",31202.000,"cc",28354.627,6.00,6,0.100,26679.000,0.200,2186.000,0.300,877.000,0.500,1123.000,1.000,337.000,5.000,0
"03/09/08","02:10:39",31374.000,"cc",28247.652,6.00,6,0.100,26938.000,0.200,2207.000,0.300,909.000,0.500,999.000,1.000,321.000,5.000,0
"03/09/08","02:10:45",31806.000,"cc",28351.578,6.00,6,0.100,27147.000,0.200,2281.000,0.300,917.000,0.500,1106.000,1.000,355.000,5.000,0
"03/09/08","02:10:51",31296.000,"cc",28322.606,6.00,6,0.100,26791.000,0.200,2237.000,0.300,950.000,0.500,1019.000,1.000,299.000,5.000,0
"03/09/08","02:10:57",31560.000,"cc",28292.305,6.00,6,0.100,26892.000,0.200,2297.000,0.300,927.000,0.500,1095.000,1.000,349.000,5.000,0
"03/09/08","02:11:03",31083.000,"cc",28356.273,6.00,6,0.100,26534.000,0.200,2131.000,0.300,928.000,0.500,1123.000,1.000,367.000,5.000,0
"03/09/08","02:11:09",31270.000,"cc",28262.898,6.00,6,0.100,26690.000,0.200,2241.000,0.300,876.000,0.500,1104.000,1.000,359.000,5.000,0
"03/09/08","02:11:15",31205.000,"cc",28291.022,6.00,6,0.100,26710.000,0.200,2202.000,0.300,926.000,0.500,1051.000,1.000,316.000,5.000,0
"03/09/08","02:11:21",31514.000,"cc",28309.297,6.00,6,0.100,26918.000,0.200,2229.000,0.300,943.000,0.500,1090.000,1.000,334.000,5.000,0
"03/09/08","02:11:27",31597.000,"cc",28314.551,6.00,6,0.100,26810.000,0.200,2316.000,0.300,967.000,0.500,1148.000,1.000,356.000,5.000,0
"03/09/08","02:11:33",31700.000,"cc",28379.545,6.00,6,0.100,27050.000,0.200,2263.000,0.300,939.000,0.500,1101.000,1.000,347.000,5.000,0
"03/09/08","02:11:39",31156.000,"cc",28210.063,6.00,6,0.100,26551.000,0.200,2203.000,0.300,934.000,0.500,1074.000,1.000,394.000,5.000,0
"03/09/08","02:11:45",31662.000,"cc",28413.065,6.00,6,0.100,26937.000,0.200,2257.000,0.300,943.000,0.500,1151.000,1.000,374.000,5.000,0
"03/09/08","02:11:51",31702.000,"cc",28305.525,6.00,6,0.100,27103.000,0.200,2232.000,0.300,943.000,0.500,1090.000,1.000,334.000,5.000,0
"03/09/08","02:11:57",31780.000,"cc",28346.611,6.00,6,0.100,27011.000,0.200,2250.000,0.300,978.000,0.500,1151.000,1.000,390.000,5.000,0
"03/09/08","02:12:03",31579.000,"cc",28259.197,6.00,6,0.100,26796.000,0.200,2370.000,0.300,985.000,0.500,1082.000,1.000,346.000,5.000,0
"03/09/08","02:12:09",31436.000,"cc",28319.371,6.00,6,0.100,26720.000,0.200,2283.000,0.300,944.000,0.500,1129.000,1.000,360.000,5.000,0
"03/09/08","02:12:15",31829.000,"cc",28304.281,6.00,6,0.100,27052.000,0.200,2258.000,0.300,995.000,0.500,1148.000,1.000,376.000,5.000,0
"03/09/08","02:12:21",31251.000,"cc",28340.014,6.00,6,0.100,26711.000,0.200,2205.000,0.300,910.000,0.500,1101.000,1.000,324.000,5.000,0
"03/09/08","02:12:27",31255.000,"cc",28359.486,6.00,6,0.100,26722.000,0.200,2254.000,0.300,925.000,0.500,1010.000,1.000,344.000,5.000,0
"03/09/08","02:12:33",31268.000,"cc",28245.834,6.00,6,0.100,26666.000,0.200,2214.000,0.300,926.000,0.500,1099.000,1.000,363.000,5.000,0
"03/09/08","02:12:39",31368.000,"cc",28338.385,6.00,6,0.100,26825.000,0.200,2246.000,0.300,899.000,0.500,1047.000,1.000,351.000,5.000,0
"03/09/08","02:12:45",31618.000,"cc",28360.254,6.00,6,0.100,27085.000,0.200,2175.000,0.300,917.000,0.500,1087.000,1.000,354.000,5.000,0
"03/09/08","02:12:51",31384.000,"cc",28256.492,6.00,6,0.100,26798.000,0.200,2209.000,0.300,939.000,0.500,1107.000,1.000,331.000,5.000,0
"03/09/08","02:12:57",31490.000,"cc",28320.473,6.00,6,0.100,26773.000,0.200,2272.000,0.300,974.000,0.500,1134.000,1.000,337.000,5.000,0
"03/09/08","02:13:03",31731.000,"cc",28328.961,6.00,6,0.100,27065.000,0.200,2271.000,0.300,909.000,0.500,1143.000,1.000,343.000,5.000,0
"03/09/08","02:13:09",31505.000,"cc",28318.578,6.00,6,0.100,26953.000,0.200,2211.000,0.300,918.000,0.500,1091.000,1.000,332.000,5.000,0
"03/09/08","02:13:15",31262.000,"cc",28242.791,6.00,6,0.100,26689.000,0.200,2214.000,0.300,916.000,0.500,1080.000,1.000,363.000,5.000,0
"03/09/08","02:13:21",31848.000,"cc",28375.035,6.00,6,0.100,27336.000,0.200,2184.000,0.300,926.000,0.500,1031.000,1.000,371.000,5.000,0
"03/09/08","02:13:27",31317.000,"cc",28284.033,6.00,6,0.100,26724.000,0.200,2194.000,0.300,910.000,0.500,1129.000,1.000,360.000,5.000,0
"03/09/08","02:13:33",31370.000,"cc",28297.520,6.00,6,0.100,26856.000,0.200,2189.000,0.300,898.000,0.500,1079.000,1.000,348.000,5.000,0
"03/09/08","02:13:39",31186.000,"cc",28327.582,6.00,6,0.100,26501.000,0.200,2309.000,0.300,928.000,0.500,1081.000,1.000,367.000,5.000,0
"03/09/08","02:13:45",31367.000,"cc",28337.270,6.00,6,0.100,26768.000,0.200,2260.000,0.300,900.000,0.500,1042.000,1.000,397.000,5.000,0
"03/09/08","02:13:51",31450.000,"cc",28297.606,6.00,6,0.100,26792.000,0.200,2263.000,0.300,944.000,0.500,1090.000,1.000,360.000,5.000,1.000
"03/09/08","02:13:57",31295.000,"cc",28308.580,6.00,6,0.100,26760.000,0.200,2234.000,0.300,923.000,0.500,1066.000,1.000,312.000,5.000,0
"03/09/08","02:14:03",31332.000,"cc",28390.535,6.00,6,0.100,26726.000,0.200,2251.000,0.300,914.000,0.500,1080.000,1.000,361.000,5.000,0
"03/09/08","02:14:09",31459.000,"cc",28279.291,6.00,6,0.100,26770.000,0.200,2303.000,0.300,969.000,0.500,1068.000,1.000,349.000,5.000,0
"03/09/08","02:14:15",31395.000,"cc",28294.555,6.00,6,0.100,26859.000,0.200,2186.000,0.300,922.000,0.500,1073.000,1.000,355.000,5.000,0
"03/09/08","02:14:21",31354.000,"cc",28340.961,6.00,6,0.100,26674.000,0.200,2235.000,0.300,909.000,0.500,1142.000,1.000,394.000,5.000,0
"03/09/08","02:14:27",31246.000,"cc",28338.252,6.00,6,0.100,26746.000,0.200,2151.000,0.300,904.000,0.500,1095.000,1.000,350.000,5.000,0
"03/09/08","02:14:33",31252.000,"cc",28281.014,6.00,6,0.100,26619.000,0.200,2201.000,0.300,903.000,0.500,1162.000,1.000,367.000,5.000,0
"03/09/08","02:14:39",31490.000,"cc",28312.461,6.00,6,0.100,26837.000,0.200,2212.000,0.300,938.000,0.500,1128.000,1.000,375.000,5.000,0
"03/09/08","02:14:45",31004.000,"cc",28281.250,6.00,6,0.100,26380.000,0.200,2190.000,0.300,948.000,0.500,1154.000,1.000,332.000,5.000,0
"03/09/08","02:14:51",31316.000,"cc",28413.857,6.00,6,0.100,26730.000,0.200,2179.000,0.300,956.000,0.500,1093.000,1.000,358.000,5.000,0
"03/09/08","02:14:57",31535.000,"cc",28306.498,6.00,6,0.100,26957.000,0.200,2203.000,0.300,977.000,0.500,1064.000,1.000,334.000,5.000,0
"03/09/08","02:15:03",31512.000,"cc",28280.115,6.00,6,0.100,26838.000,0.200,2280.000,0.300,1001.000,0.500,1040.000,1.000,353.000,5.000,0
"03/09/08","02:15:09",31351.000,"cc",28351.979,6.00,6,0.100,26767.000,0.200,2175.000,0.300,954.000,0.500,1118.000,1.000,337.000,5.000,0
"03/09/08","02:15:15",31200.000,"cc",28308.553,6.00,6,0.100,26618.000,0.200,2250.000,0.300,945.000,0.500,1047.000,1.000,340.000,5.000,0
"03/09/08","02:15:21",31477.000,"cc",28364.334,6.00,6,0.100,26785.000,0.200,2320.000,0.300,866.000,0.500,1110.000,1.000,396.000,5.000,0
"03/09/08","02:15:27",30920.000,"cc",28250.912,6.00,6,0.100,26534.000,0.200,2116.000,0.300,881.000,0.500,1033.000,1.000,356.000,5.000,0
"03/09/08","02:15:33",31415.000,"cc",28251.815,6.00,6,0.100,26784.000,0.200,2229.000,0.300,986.000,0.500,1068.000,1.000,348.000,5.000,0
"03/09/08","02:15:39",31144.000,"cc",28331.510,6.00,6,0.100,26624.000,0.200,2138.000,0.300,916.000,0.500,1137.000,1.000,329.000,5.000,0
"03/09/08","02:15:45",31168.000,"cc",28291.988,6.00,6,0.100,26591.000,0.200,2248.000,0.300,895.000,0.500,1080.000,1.000,354.000,5.000,0
"03/09/08","02:15:51",30941.000,"cc",28328.668,6.00,6,0.100,26514.000,0.200,2148.000,0.300,879.000,0.500,1049.000,1.000,351.000,5.000,0
"03/09/08","02:15:57",31599.000,"cc",28326.357,6.00,6,0.100,26894.000,0.200,2304.000,0.300,884.000,0.500,1148.000,1.000,369.000,5.000,0
"03/09/08","02:16:03",31056.000,"cc",28344.078,6.00,6,0.100,26521.000,0.200,2204.000,0.300,910.000,0.500,1095.000,1.000,326.000,5.000,0
"03/09/08","02:16:09",30864.000,"cc",28315.691,6.00,6,0.100,26401.000,0.200,2098.000,0.300,928.000,0.500,1107.000,1.000,330.000,5.000,0
"03/09/08","02:16:15",31075.000,"cc",28317.992,6.00,6,0.100,26515.000,0.200,2236.000,0.300,905.000,0.500,1073.000,1.000,346.000,5.000,0
"03/09/08","02:16:21",31284.000,"cc",28264.297,6.00,6,0.100,26675.000,0.200,2258.000,0.300,881.000,0.500,1115.000,1.000,355.000,5.000,0
"03/09/08","02:16:27",31629.000,"cc",28343.961,6.00,6,0.100,27077.000,0.200,2197.000,0.300,937.000,0.500,1095.000,1.000,323.000,5.000,0